Time,TemperatureF,DewpointF,PressureIn,WindDirection,WindDirectionDegrees,WindSpeedMPH,WindSpeedGustMPH,Humidity,HourlyPrecipIn,Conditions,Clouds,dailyrainin,SoftwareType,DateUTC
2013-03-04 00:02:00,33.4,17.2,29.48,SE,135,1.0,4.0,51,0.00,,,0.00,meteohub,2013-03-04 06:02:00,
2013-03-04 00:07:00,33.4,17.2,29.48,East,90,2.0,3.0,51,0.00,,,0.00,meteohub,2013-03-04 06:07:00,
2013-03-04 00:12:00,33.3,17.1,29.48,ESE,112,1.0,3.0,51,0.00,,,0.00,meteohub,2013-03-04 06:12:00,
2013-03-04 00:17:00,33.3,17.1,29.48,ESE,112,1.0,3.0,51,0.00,,,0.00,meteohub,2013-03-04 06:17:00,
2013-03-04 00:22:00,33.4,17.2,29.48,ENE,68,3.0,4.0,51,0.00,,,0.00,meteohub,2013-03-04 06:22:00,
2013-03-04 00:27:00,33.3,17.1,29.48,East,90,3.0,4.0,51,0.00,,,0.00,meteohub,2013-03-04 06:27:00,
2013-03-04 00:32:00,33.3,17.1,29.48,East,90,2.0,4.0,51,0.00,,,0.00,meteohub,2013-03-04 06:32:00,
2013-03-04 00:37:00,33.3,17.1,29.48,ESE,112,1.0,4.0,51,0.00,,,0.00,meteohub,2013-03-04 06:37:00,
2013-03-04 00:43:00,33.3,17.1,29.48,ESE,112,1.0,4.0,51,0.00,,,0.00,meteohub,2013-03-04 06:43:00,
2013-03-04 00:48:00,33.3,17.1,29.48,SE,135,2.0,4.0,51,0.00,,,0.00,meteohub,2013-03-04 06:48:00,
2013-03-04 00:53:00,33.3,17.1,29.48,ESE,112,1.0,4.0,51,0.00,,,0.00,meteohub,2013-03-04 06:53:00,
2013-03-04 00:58:00,33.3,17.1,29.48,East,90,3.0,4.0,51,0.00,,,0.00,meteohub,2013-03-04 06:58:00,
2013-03-04 01:03:00,33.3,17.1,29.48,East,90,1.0,4.0,51,0.00,,,0.00,meteohub,2013-03-04 07:03:00,
2013-03-04 01:08:00,33.3,17.1,29.48,East,90,2.0,4.0,51,0.00,,,0.00,meteohub,2013-03-04 07:08:00,
2013-03-04 01:13:00,33.3,17.1,29.48,ESE,112,2.0,4.0,51,0.00,,,0.00,meteohub,2013-03-04 07:13:00,
2013-03-04 01:18:00,33.3,17.1,29.48,ESE,112,3.0,4.0,51,0.00,,,0.00,meteohub,2013-03-04 07:18:00,
2013-03-04 01:23:00,33.3,17.6,29.48,ESE,112,2.0,4.0,52,0.00,,,0.00,meteohub,2013-03-04 07:23:00,
2013-03-04 01:28:00,33.3,17.6,29.48,East,90,3.0,4.0,52,0.00,,,0.00,meteohub,2013-03-04 07:28:00,
2013-03-04 01:33:00,33.3,17.6,29.48,ESE,112,3.0,4.0,52,0.00,,,0.00,meteohub,2013-03-04 07:33:00,
2013-03-04 01:39:00,33.4,17.8,29.48,East,90,3.0,4.0,52,0.00,,,0.00,meteohub,2013-03-04 07:39:00,
2013-03-04 01:44:00,33.4,17.8,29.48,ESE,112,2.0,4.0,52,0.00,,,0.00,meteohub,2013-03-04 07:44:00,
2013-03-04 01:49:00,33.4,17.8,29.48,ESE,112,3.0,4.0,52,0.00,,,0.00,meteohub,2013-03-04 07:49:00,
2013-03-04 01:54:00,33.6,18.0,29.48,ESE,112,2.0,4.0,52,0.00,,,0.00,meteohub,2013-03-04 07:54:00,
2013-03-04 01:59:00,33.6,18.0,29.48,East,90,2.0,4.0,52,0.00,,,0.00,meteohub,2013-03-04 07:59:00,
2013-03-04 02:04:00,33.6,18.0,29.48,SE,135,2.0,4.0,52,0.00,,,0.00,meteohub,2013-03-04 08:04:00,
2013-03-04 02:09:00,33.6,18.0,29.48,ESE,112,4.0,6.0,52,0.00,,,0.00,meteohub,2013-03-04 08:09:00,
2013-03-04 02:14:00,33.6,18.0,29.48,ESE,112,3.0,6.0,52,0.00,,,0.00,meteohub,2013-03-04 08:14:00,
2013-03-04 02:19:00,33.6,18.0,29.48,East,90,1.0,6.0,52,0.00,,,0.00,meteohub,2013-03-04 08:19:00,
2013-03-04 02:24:00,33.6,18.0,29.48,East,90,3.0,6.0,52,0.00,,,0.00,meteohub,2013-03-04 08:24:00,
2013-03-04 02:29:00,33.8,18.1,29.48,East,90,3.0,6.0,52,0.00,,,0.00,meteohub,2013-03-04 08:29:00,
2013-03-04 02:35:00,33.8,18.1,29.48,East,90,3.0,6.0,52,0.00,,,0.00,meteohub,2013-03-04 08:35:00,
2013-03-04 02:40:00,33.6,18.3,29.45,SE,135,2.0,6.0,53,0.00,,,0.00,meteohub,2013-03-04 08:40:00,
2013-03-04 02:45:00,33.6,18.3,29.45,East,90,2.0,6.0,53,0.00,,,0.00,meteohub,2013-03-04 08:45:00,
2013-03-04 02:50:00,33.6,18.3,29.45,ENE,68,2.0,6.0,53,0.00,,,0.00,meteohub,2013-03-04 08:50:00,
2013-03-04 02:55:00,33.6,18.3,29.45,East,90,3.0,6.0,53,0.00,,,0.00,meteohub,2013-03-04 08:55:00,
2013-03-04 03:00:00,33.6,18.3,29.45,East,90,3.0,6.0,53,0.00,,,0.00,meteohub,2013-03-04 09:00:00,
2013-03-04 03:05:00,33.6,18.3,29.45,East,90,3.0,6.0,53,0.00,,,0.00,meteohub,2013-03-04 09:05:00,
2013-03-04 03:10:00,33.6,18.9,29.45,ENE,68,3.0,6.0,54,0.00,,,0.00,meteohub,2013-03-04 09:10:00,
2013-03-04 03:15:00,33.6,18.9,29.45,East,90,4.0,6.0,54,0.00,,,0.00,meteohub,2013-03-04 09:15:00,
2013-03-04 03:20:00,33.6,18.9,29.45,East,90,3.0,6.0,54,0.00,,,0.00,meteohub,2013-03-04 09:20:00,
2013-03-04 03:26:00,33.6,18.9,29.45,East,90,3.0,6.0,54,0.00,,,0.00,meteohub,2013-03-04 09:26:00,
2013-03-04 03:31:00,33.8,18.5,29.45,SE,135,3.0,6.0,53,0.00,,,0.00,meteohub,2013-03-04 09:31:00,
2013-03-04 03:36:00,33.8,18.5,29.45,East,90,4.0,6.0,53,0.00,,,0.00,meteohub,2013-03-04 09:36:00,
2013-03-04 03:41:00,33.8,18.5,29.42,ESE,112,4.0,6.0,53,0.00,,,0.00,meteohub,2013-03-04 09:41:00,
2013-03-04 03:46:00,33.8,18.5,29.42,East,90,5.0,6.0,53,0.00,,,0.00,meteohub,2013-03-04 09:46:00,
2013-03-04 03:51:00,33.8,18.5,29.42,ESE,112,4.0,6.0,53,0.00,,,0.00,meteohub,2013-03-04 09:51:00,
2013-03-04 03:56:00,33.8,18.5,29.42,ESE,112,2.0,6.0,53,0.00,,,0.00,meteohub,2013-03-04 09:56:00,
2013-03-04 04:01:00,33.8,18.5,29.42,ESE,112,3.0,5.0,53,0.00,,,0.00,meteohub,2013-03-04 10:01:00,
2013-03-04 04:06:00,33.8,18.5,29.42,ESE,112,2.0,4.0,53,0.00,,,0.00,meteohub,2013-03-04 10:06:00,
2013-03-04 04:11:00,33.8,19.0,29.45,East,90,4.0,5.0,54,0.00,,,0.00,meteohub,2013-03-04 10:11:00,
2013-03-04 04:16:00,33.6,19.2,29.45,East,90,2.0,6.0,55,0.00,,,0.00,meteohub,2013-03-04 10:16:00,
2013-03-04 04:22:00,33.6,19.6,29.45,East,90,3.0,6.0,56,0.00,,,0.00,meteohub,2013-03-04 10:22:00,
2013-03-04 04:27:00,33.4,19.4,29.45,East,90,5.0,6.0,56,0.00,,,0.00,meteohub,2013-03-04 10:27:00,
2013-03-04 04:32:00,33.3,20.1,29.45,East,90,6.0,6.0,58,0.00,,,0.00,meteohub,2013-03-04 10:32:00,
2013-03-04 04:37:00,33.3,20.1,29.45,ENE,68,3.0,6.0,58,0.00,,,0.00,meteohub,2013-03-04 10:37:00,
2013-03-04 04:42:00,33.1,20.3,29.42,East,90,5.0,6.0,59,0.00,,,0.00,meteohub,2013-03-04 10:42:00,
2013-03-04 04:47:00,33.1,20.3,29.42,ESE,112,3.0,6.0,59,0.00,,,0.00,meteohub,2013-03-04 10:47:00,
2013-03-04 04:52:00,33.1,20.3,29.42,ESE,112,3.0,7.0,59,0.00,,,0.00,meteohub,2013-03-04 10:52:00,
2013-03-04 04:57:00,33.1,20.3,29.45,SSE,158,4.0,7.0,59,0.00,,,0.00,meteohub,2013-03-04 10:57:00,
2013-03-04 05:02:00,33.1,20.7,29.45,East,90,3.0,7.0,60,0.00,,,0.00,meteohub,2013-03-04 11:02:00,
2013-03-04 05:07:00,32.9,21.0,29.45,East,90,4.0,6.0,61,0.00,,,0.00,meteohub,2013-03-04 11:07:00,
2013-03-04 05:12:00,32.9,21.4,29.45,ESE,112,4.0,7.0,62,0.00,,,0.00,meteohub,2013-03-04 11:12:00,
2013-03-04 05:17:00,32.9,21.4,29.45,ENE,68,3.0,7.0,62,0.00,,,0.00,meteohub,2013-03-04 11:17:00,
2013-03-04 05:22:00,32.7,21.2,29.45,East,90,6.0,7.0,62,0.00,,,0.00,meteohub,2013-03-04 11:22:00,
2013-03-04 05:27:00,32.7,21.2,29.45,ESE,112,4.0,7.0,62,0.00,,,0.00,meteohub,2013-03-04 11:27:00,
2013-03-04 05:32:00,32.7,21.2,29.45,SE,135,3.0,7.0,62,0.00,,,0.00,meteohub,2013-03-04 11:32:00,
2013-03-04 05:37:00,32.9,21.7,29.45,ENE,68,5.0,7.0,63,0.00,,,0.00,meteohub,2013-03-04 11:37:00,
2013-03-04 05:42:00,32.7,21.2,29.45,East,90,3.0,5.0,62,0.00,,,0.00,meteohub,2013-03-04 11:42:00,
2013-03-04 05:47:00,32.9,21.4,29.45,ESE,112,2.0,6.0,62,0.00,,,0.00,meteohub,2013-03-04 11:47:00,
2013-03-04 05:52:00,32.9,21.7,29.45,East,90,3.0,6.0,63,0.00,,,0.00,meteohub,2013-03-04 11:52:00,
2013-03-04 05:57:00,32.9,21.7,29.48,ESE,112,2.0,6.0,63,0.00,,,0.00,meteohub,2013-03-04 11:57:00,
2013-03-04 06:02:00,32.9,21.4,29.48,ESE,112,3.0,6.0,62,0.00,,,0.00,meteohub,2013-03-04 12:02:00,
2013-03-04 06:07:00,32.9,21.4,29.48,ESE,112,3.0,8.0,62,0.00,,,0.00,meteohub,2013-03-04 12:07:00,
2013-03-04 06:12:00,32.9,21.4,29.45,SSE,158,3.0,8.0,62,0.00,,,0.00,meteohub,2013-03-04 12:12:00,
2013-03-04 06:17:00,32.9,21.4,29.45,ESE,112,6.0,8.0,62,0.00,,,0.00,meteohub,2013-03-04 12:17:00,
2013-03-04 06:22:00,32.9,21.4,29.45,East,90,4.0,11.0,62,0.00,,,0.00,meteohub,2013-03-04 12:22:00,
2013-03-04 06:27:00,32.9,21.4,29.42,East,90,6.0,11.0,62,0.00,,,0.00,meteohub,2013-03-04 12:27:00,
2013-03-04 06:32:00,32.9,21.4,29.42,ESE,112,6.0,11.0,62,0.00,,,0.00,meteohub,2013-03-04 12:32:00,
2013-03-04 06:37:00,32.9,21.4,29.42,SSE,158,4.0,9.0,62,0.00,,,0.00,meteohub,2013-03-04 12:37:00,
2013-03-04 06:42:00,32.9,21.0,29.42,ESE,112,5.0,9.0,61,0.00,,,0.00,meteohub,2013-03-04 12:42:00,
2013-03-04 06:47:00,32.9,21.0,29.42,East,90,4.0,9.0,61,0.00,,,0.00,meteohub,2013-03-04 12:47:00,
2013-03-04 06:52:00,32.9,21.4,29.42,East,90,5.0,9.0,62,0.00,,,0.00,meteohub,2013-03-04 12:52:00,
2013-03-04 06:57:00,33.1,21.2,29.42,SE,135,6.0,9.0,61,0.00,,,0.00,meteohub,2013-03-04 12:57:00,
2013-03-04 07:02:00,33.1,21.6,29.42,ENE,68,4.0,8.0,62,0.00,,,0.00,meteohub,2013-03-04 13:02:00,
2013-03-04 07:07:00,33.1,21.2,29.42,East,90,4.0,8.0,61,0.00,,,0.00,meteohub,2013-03-04 13:07:00,
2013-03-04 07:12:00,33.3,21.4,29.42,ESE,112,10.0,11.0,61,0.00,,,0.00,meteohub,2013-03-04 13:12:00,
2013-03-04 07:17:00,33.3,20.8,29.42,ESE,112,3.0,11.0,60,0.00,,,0.00,meteohub,2013-03-04 13:17:00,
2013-03-04 07:22:00,33.4,21.0,29.42,ESE,112,5.0,10.0,60,0.00,,,0.00,meteohub,2013-03-04 13:22:00,
2013-03-04 07:27:00,33.6,21.2,29.45,East,90,6.0,10.0,60,0.00,,,0.00,meteohub,2013-03-04 13:27:00,
2013-03-04 07:32:00,33.8,21.0,29.45,East,90,4.0,7.0,59,0.00,,,0.00,meteohub,2013-03-04 13:32:00,
2013-03-04 07:37:00,34.0,21.6,29.45,ESE,112,3.0,7.0,60,0.00,,,0.00,meteohub,2013-03-04 13:37:00,
2013-03-04 07:42:00,34.2,21.4,29.45,East,90,4.0,9.0,59,0.00,,,0.00,meteohub,2013-03-04 13:42:00,
2013-03-04 07:47:00,34.2,21.4,29.45,ESE,112,6.0,9.0,59,0.00,,,0.00,meteohub,2013-03-04 13:47:00,
2013-03-04 07:52:00,34.2,21.0,29.45,ESE,112,4.0,9.0,58,0.00,,,0.00,meteohub,2013-03-04 13:52:00,
2013-03-04 07:57:00,34.3,21.6,29.42,South,180,6.0,10.0,59,0.00,,,0.00,meteohub,2013-03-04 13:57:00,
2013-03-04 08:02:00,34.5,21.4,29.42,East,90,5.0,10.0,58,0.00,,,0.00,meteohub,2013-03-04 14:02:00,
2013-03-04 08:07:00,34.7,21.0,29.42,ESE,112,10.0,10.0,57,0.00,,,0.00,meteohub,2013-03-04 14:07:00,
2013-03-04 08:12:00,34.7,21.0,29.42,ESE,112,3.0,10.0,57,0.00,,,0.00,meteohub,2013-03-04 14:12:00,
2013-03-04 08:17:00,35.6,21.9,29.42,ESE,112,4.0,10.0,57,0.00,,,0.00,meteohub,2013-03-04 14:17:00,
2013-03-04 08:22:00,36.3,21.7,29.42,SE,135,4.0,10.0,55,0.00,,,0.00,meteohub,2013-03-04 14:22:00,
2013-03-04 08:27:00,37.0,22.5,29.39,ESE,112,6.0,15.0,55,0.00,,,0.00,meteohub,2013-03-04 14:27:00,
2013-03-04 08:32:00,37.2,22.6,29.39,ESE,112,8.0,15.0,55,0.00,,,0.00,meteohub,2013-03-04 14:32:00,
2013-03-04 08:37:00,37.0,21.6,29.39,ESE,112,6.0,13.0,53,0.00,,,0.00,meteohub,2013-03-04 14:37:00,
2013-03-04 08:42:00,37.0,21.9,29.39,ESE,112,5.0,13.0,54,0.00,,,0.00,meteohub,2013-03-04 14:42:00,
2013-03-04 08:47:00,37.0,21.6,29.39,ESE,112,4.0,13.0,53,0.00,,,0.00,meteohub,2013-03-04 14:47:00,
2013-03-04 08:52:00,37.6,21.6,29.39,South,180,6.0,13.0,52,0.00,,,0.00,meteohub,2013-03-04 14:52:00,
2013-03-04 08:57:00,38.3,22.3,29.39,East,90,6.0,12.0,52,0.00,,,0.00,meteohub,2013-03-04 14:57:00,
2013-03-04 09:02:00,38.7,22.6,29.39,ESE,112,5.0,12.0,52,0.00,,,0.00,meteohub,2013-03-04 15:02:00,
2013-03-04 09:07:00,38.8,22.3,29.39,SE,135,5.0,12.0,51,0.00,,,0.00,meteohub,2013-03-04 15:07:00,
2013-03-04 09:12:00,39.0,22.5,29.36,South,180,4.0,12.0,51,0.00,,,0.00,meteohub,2013-03-04 15:12:00,
2013-03-04 09:17:00,38.7,22.1,29.36,SSE,158,3.0,11.0,51,0.00,,,0.00,meteohub,2013-03-04 15:17:00,
2013-03-04 09:22:00,38.7,21.7,29.36,ESE,112,9.0,11.0,50,0.00,,,0.00,meteohub,2013-03-04 15:22:00,
2013-03-04 09:27:00,38.5,21.6,29.39,ESE,112,5.0,12.0,50,0.00,,,0.00,meteohub,2013-03-04 15:27:00,
2013-03-04 09:32:00,38.5,21.6,29.39,ESE,112,10.0,12.0,50,0.00,,,0.00,meteohub,2013-03-04 15:32:00,
2013-03-04 09:37:00,38.5,21.0,29.39,ESE,112,8.0,15.0,49,0.00,,,0.00,meteohub,2013-03-04 15:37:00,
2013-03-04 09:42:00,38.3,21.4,29.39,ESE,112,12.0,15.0,50,0.00,,,0.00,meteohub,2013-03-04 15:42:00,
2013-03-04 09:47:00,38.8,22.3,29.39,East,90,9.0,15.0,51,0.00,,,0.00,meteohub,2013-03-04 15:47:00,
2013-03-04 09:52:00,39.9,22.8,29.39,ESE,112,8.0,13.0,50,0.00,,,0.00,meteohub,2013-03-04 15:52:00,
2013-03-04 09:57:00,41.0,23.9,29.36,ESE,112,4.0,13.0,50,0.00,,,0.00,meteohub,2013-03-04 15:57:00,
2013-03-04 10:02:00,40.5,22.3,29.36,SE,135,9.0,13.0,48,0.00,,,0.00,meteohub,2013-03-04 16:02:00,
2013-03-04 10:07:00,40.1,21.0,29.36,East,90,8.0,13.0,46,0.00,,,0.00,meteohub,2013-03-04 16:07:00,
2013-03-04 10:12:00,40.8,22.6,29.36,East,90,6.0,16.0,48,0.00,,,0.00,meteohub,2013-03-04 16:12:00,
2013-03-04 10:17:00,41.4,22.1,29.36,East,90,10.0,16.0,46,0.00,,,0.00,meteohub,2013-03-04 16:17:00,
2013-03-04 10:22:00,41.5,21.7,29.36,ESE,112,6.0,16.0,45,0.00,,,0.00,meteohub,2013-03-04 16:22:00,
2013-03-04 10:27:00,42.1,22.3,29.36,SSE,158,12.0,16.0,45,0.00,,,0.00,meteohub,2013-03-04 16:27:00,
2013-03-04 10:32:00,42.3,22.5,29.36,East,90,9.0,13.0,45,0.00,,,0.00,meteohub,2013-03-04 16:32:00,
2013-03-04 10:37:00,42.6,22.3,29.36,East,90,6.0,14.0,44,0.00,,,0.00,meteohub,2013-03-04 16:37:00,
2013-03-04 10:42:00,43.3,22.5,29.34,East,90,9.0,14.0,43,0.00,,,0.00,meteohub,2013-03-04 16:42:00,
2013-03-04 10:47:00,43.7,22.6,29.34,East,90,4.0,11.0,43,0.00,,,0.00,meteohub,2013-03-04 16:47:00,
2013-03-04 10:52:00,43.5,21.9,29.34,East,90,3.0,15.0,42,0.00,,,0.00,meteohub,2013-03-04 16:52:00,
2013-03-04 10:57:00,44.6,23.5,29.36,East,90,5.0,15.0,43,0.00,,,0.00,meteohub,2013-03-04 16:57:00,
2013-03-04 11:02:00,44.8,22.6,29.36,SE,135,8.0,15.0,41,0.00,,,0.00,meteohub,2013-03-04 17:02:00,
2013-03-04 11:07:00,45.3,23.5,29.36,ESE,112,6.0,15.0,42,0.00,,,0.00,meteohub,2013-03-04 17:07:00,
2013-03-04 11:12:00,46.2,23.9,29.34,East,90,6.0,13.0,41,0.00,,,0.00,meteohub,2013-03-04 17:12:00,
2013-03-04 11:17:00,45.7,22.8,29.34,East,90,12.0,12.0,40,0.00,,,0.00,meteohub,2013-03-04 17:17:00,
2013-03-04 11:22:00,46.0,23.7,29.34,ESE,112,6.0,12.0,41,0.00,,,0.00,meteohub,2013-03-04 17:22:00,
2013-03-04 11:27:00,46.2,23.9,29.31,East,90,11.0,13.0,41,0.00,,,0.00,meteohub,2013-03-04 17:27:00,
2013-03-04 11:32:00,46.0,23.2,29.31,East,90,6.0,13.0,40,0.00,,,0.00,meteohub,2013-03-04 17:32:00,
2013-03-04 11:37:00,45.3,22.5,29.31,ESE,112,10.0,14.0,40,0.00,,,0.00,meteohub,2013-03-04 17:37:00,
2013-03-04 11:42:00,45.9,23.0,29.34,SSE,158,6.0,14.0,40,0.00,,,0.00,meteohub,2013-03-04 17:42:00,
2013-03-04 11:47:00,47.3,24.3,29.34,ENE,68,8.0,14.0,40,0.00,,,0.00,meteohub,2013-03-04 17:47:00,
2013-03-04 11:52:00,47.1,24.1,29.34,SE,135,8.0,13.0,40,0.00,,,0.00,meteohub,2013-03-04 17:52:00,
2013-03-04 11:57:00,47.7,24.6,29.34,ESE,112,4.0,13.0,40,0.00,,,0.00,meteohub,2013-03-04 17:57:00,
2013-03-04 12:02:00,47.7,23.9,29.34,SE,135,7.0,13.0,39,0.00,,,0.00,meteohub,2013-03-04 18:02:00,
2013-03-04 12:08:00,47.8,24.1,29.34,ENE,68,4.0,15.0,39,0.00,,,0.00,meteohub,2013-03-04 18:08:00,
2013-03-04 12:13:00,47.8,24.8,29.31,SSE,158,6.0,15.0,40,0.00,,,0.00,meteohub,2013-03-04 18:13:00,
2013-03-04 12:18:00,47.1,23.5,29.31,South,180,6.0,15.0,39,0.00,,,0.00,meteohub,2013-03-04 18:18:00,
2013-03-04 12:23:00,47.1,23.5,29.31,ESE,112,5.0,13.0,39,0.00,,,0.00,meteohub,2013-03-04 18:23:00,
2013-03-04 12:28:00,47.1,23.5,29.31,SE,135,6.0,13.0,39,0.00,,,0.00,meteohub,2013-03-04 18:28:00,
2013-03-04 12:29:00,47.1,23.5,29.31,SSE,158,9.0,13.0,39,0.00,,,0.00,meteohub,2013-03-04 18:29:00,
2013-03-04 12:30:00,47.3,23.7,29.31,East,90,5.0,13.0,39,0.00,,,0.00,meteohub,2013-03-04 18:30:00,
2013-03-04 12:31:00,47.3,23.7,29.31,ENE,68,6.0,14.0,39,0.00,,,0.00,meteohub,2013-03-04 18:31:00,
2013-03-04 12:32:00,47.5,23.7,29.31,ESE,112,6.0,14.0,39,0.00,,,0.00,meteohub,2013-03-04 18:32:00,
2013-03-04 12:37:00,47.5,24.4,29.31,South,180,4.0,14.0,40,0.00,,,0.00,meteohub,2013-03-04 18:37:00,
2013-03-04 12:42:00,47.7,23.9,29.28,SE,135,8.0,15.0,39,0.00,,,0.00,meteohub,2013-03-04 18:42:00,
2013-03-04 12:47:00,48.2,24.4,29.28,ESE,112,6.0,15.0,39,0.00,,,0.00,meteohub,2013-03-04 18:47:00,
2013-03-04 12:52:00,48.4,24.6,29.28,SE,135,6.0,15.0,39,0.00,,,0.00,meteohub,2013-03-04 18:52:00,
2013-03-04 12:57:00,48.2,24.4,29.28,SSE,158,5.0,11.0,39,0.00,,,0.00,meteohub,2013-03-04 18:57:00,
2013-03-04 13:02:00,48.0,25.0,29.28,East,90,7.0,17.0,40,0.00,,,0.00,meteohub,2013-03-04 19:02:00,
2013-03-04 13:07:00,47.7,24.6,29.28,ESE,112,6.0,17.0,40,0.00,,,0.00,meteohub,2013-03-04 19:07:00,
2013-03-04 13:13:00,48.2,25.0,29.28,SE,135,4.0,12.0,40,0.00,,,0.00,meteohub,2013-03-04 19:13:00,
2013-03-04 13:18:00,48.0,25.0,29.28,ESE,112,11.0,13.0,40,0.00,,,0.00,meteohub,2013-03-04 19:18:00,
2013-03-04 13:23:00,47.8,24.8,29.28,East,90,3.0,13.0,40,0.00,,,0.00,meteohub,2013-03-04 19:23:00,
2013-03-04 13:28:00,48.2,25.0,29.28,ESE,112,8.0,13.0,40,0.00,,,0.00,meteohub,2013-03-04 19:28:00,
2013-03-04 13:33:00,47.8,24.8,29.28,ESE,112,8.0,13.0,40,0.00,,,0.00,meteohub,2013-03-04 19:33:00,
2013-03-04 13:38:00,47.7,24.6,29.28,East,90,12.0,13.0,40,0.00,,,0.00,meteohub,2013-03-04 19:38:00,
2013-03-04 13:43:00,47.8,25.3,29.28,East,90,3.0,13.0,41,0.00,,,0.00,meteohub,2013-03-04 19:43:00,
2013-03-04 13:48:00,47.5,25.0,29.28,East,90,11.0,12.0,41,0.00,,,0.00,meteohub,2013-03-04 19:48:00,
2013-03-04 13:53:00,47.3,24.8,29.28,ESE,112,6.0,12.0,41,0.00,,,0.00,meteohub,2013-03-04 19:53:00,
2013-03-04 13:59:00,47.1,24.6,29.28,ENE,68,4.0,11.0,41,0.00,,,0.00,meteohub,2013-03-04 19:59:00,
2013-03-04 14:04:00,47.1,25.3,29.28,ESE,112,6.0,11.0,42,0.00,,,0.00,meteohub,2013-03-04 20:04:00,
2013-03-04 14:09:00,46.9,25.2,29.28,East,90,4.0,11.0,42,0.00,,,0.00,meteohub,2013-03-04 20:09:00,
2013-03-04 14:14:00,46.9,25.2,29.28,SSE,158,4.0,10.0,42,0.00,,,0.00,meteohub,2013-03-04 20:14:00,
2013-03-04 14:19:00,46.9,25.7,29.28,ESE,112,3.0,10.0,43,0.00,,,0.00,meteohub,2013-03-04 20:19:00,
2013-03-04 14:24:00,47.3,26.1,29.28,ESE,112,6.0,8.0,43,0.00,,,0.00,meteohub,2013-03-04 20:24:00,
2013-03-04 14:29:00,47.1,25.9,29.28,SE,135,3.0,6.0,43,0.00,,,0.00,meteohub,2013-03-04 20:29:00,
2013-03-04 14:34:00,46.8,25.5,29.28,East,90,9.0,9.0,43,0.00,,,0.00,meteohub,2013-03-04 20:34:00,
2013-03-04 14:39:00,46.9,25.7,29.28,SSE,158,6.0,9.0,43,0.00,,,0.00,meteohub,2013-03-04 20:39:00,
2013-03-04 14:44:00,47.1,26.4,29.28,East,90,4.0,9.0,44,0.00,,,0.00,meteohub,2013-03-04 20:44:00,
2013-03-04 14:50:00,47.3,26.1,29.28,ESE,112,7.0,9.0,43,0.00,,,0.00,meteohub,2013-03-04 20:50:00,
2013-03-04 14:55:00,47.3,26.1,29.28,East,90,6.0,11.0,43,0.00,,,0.00,meteohub,2013-03-04 20:55:00,
2013-03-04 15:00:00,47.3,26.1,29.28,ENE,68,4.0,11.0,43,0.00,,,0.00,meteohub,2013-03-04 21:00:00,
2013-03-04 15:05:00,47.1,25.9,29.28,SE,135,6.0,11.0,43,0.00,,,0.00,meteohub,2013-03-04 21:05:00,
2013-03-04 15:10:00,46.9,25.2,29.28,NE,45,6.0,11.0,42,0.00,,,0.00,meteohub,2013-03-04 21:10:00,
2013-03-04 15:15:00,46.8,25.0,29.28,South,180,6.0,11.0,42,0.00,,,0.00,meteohub,2013-03-04 21:15:00,
2013-03-04 15:20:00,46.6,25.3,29.28,ESE,112,5.0,10.0,43,0.00,,,0.00,meteohub,2013-03-04 21:20:00,
2013-03-04 15:25:00,46.8,25.5,29.25,ESE,112,4.0,9.0,43,0.00,,,0.00,meteohub,2013-03-04 21:25:00,
2013-03-04 15:30:00,46.6,24.8,29.25,East,90,5.0,13.0,42,0.00,,,0.00,meteohub,2013-03-04 21:30:00,
2013-03-04 15:35:00,46.8,25.5,29.25,ENE,68,3.0,13.0,43,0.00,,,0.00,meteohub,2013-03-04 21:35:00,
2013-03-04 15:41:00,46.8,25.0,29.25,ENE,68,4.0,13.0,42,0.00,,,0.00,meteohub,2013-03-04 21:41:00,
2013-03-04 15:46:00,46.8,25.0,29.25,SE,135,6.0,10.0,42,0.00,,,0.00,meteohub,2013-03-04 21:46:00,
2013-03-04 15:51:00,46.8,24.4,29.25,ESE,112,8.0,10.0,41,0.00,,,0.00,meteohub,2013-03-04 21:51:00,
2013-03-04 15:56:00,46.6,24.3,29.28,ESE,112,7.0,10.0,41,0.00,,,0.00,meteohub,2013-03-04 21:56:00,
2013-03-04 16:01:00,46.6,24.3,29.28,ESE,112,5.0,11.0,41,0.00,,,0.00,meteohub,2013-03-04 22:01:00,
2013-03-04 16:06:00,46.6,24.8,29.28,ESE,112,5.0,13.0,42,0.00,,,0.00,meteohub,2013-03-04 22:06:00,
2013-03-04 16:11:00,46.6,24.8,29.28,East,90,4.0,13.0,42,0.00,,,0.00,meteohub,2013-03-04 22:11:00,
2013-03-04 16:16:00,46.6,24.8,29.28,SE,135,4.0,13.0,42,0.00,,,0.00,meteohub,2013-03-04 22:16:00,
2013-03-04 16:22:00,46.6,24.8,29.28,East,90,4.0,9.0,42,0.00,,,0.00,meteohub,2013-03-04 22:22:00,
2013-03-04 16:27:00,46.4,24.6,29.25,East,90,5.0,8.0,42,0.00,,,0.00,meteohub,2013-03-04 22:27:00,
2013-03-04 16:32:00,46.4,25.2,29.25,East,90,3.0,10.0,43,0.00,,,0.00,meteohub,2013-03-04 22:32:00,
2013-03-04 16:37:00,46.4,24.6,29.25,ESE,112,4.0,10.0,42,0.00,,,0.00,meteohub,2013-03-04 22:37:00,
2013-03-04 16:42:00,46.2,24.4,29.25,ESE,112,6.0,9.0,42,0.00,,,0.00,meteohub,2013-03-04 22:42:00,
2013-03-04 16:47:00,46.0,24.8,29.25,ESE,112,4.0,7.0,43,0.00,,,0.00,meteohub,2013-03-04 22:47:00,
2013-03-04 16:52:00,46.0,24.8,29.25,ESE,112,6.0,9.0,43,0.00,,,0.00,meteohub,2013-03-04 22:52:00,
2013-03-04 16:58:00,46.0,24.3,29.28,ESE,112,4.0,9.0,42,0.00,,,0.00,meteohub,2013-03-04 22:58:00,
2013-03-04 17:03:00,45.9,24.6,29.28,ESE,112,3.0,9.0,43,0.00,,,0.00,meteohub,2013-03-04 23:03:00,
2013-03-04 17:08:00,45.7,24.4,29.28,East,90,3.0,8.0,43,0.00,,,0.00,meteohub,2013-03-04 23:08:00,
2013-03-04 17:13:00,45.7,24.4,29.28,ENE,68,6.0,8.0,43,0.00,,,0.00,meteohub,2013-03-04 23:13:00,
2013-03-04 17:18:00,45.5,24.4,29.28,ESE,112,3.0,11.0,43,0.00,,,0.00,meteohub,2013-03-04 23:18:00,
2013-03-04 17:23:00,45.5,24.4,29.28,ENE,68,3.0,11.0,43,0.00,,,0.00,meteohub,2013-03-04 23:23:00,
2013-03-04 17:28:00,45.5,25.0,29.28,ESE,112,4.0,11.0,44,0.00,,,0.00,meteohub,2013-03-04 23:28:00,
2013-03-04 17:34:00,45.3,24.8,29.28,NNE,22,4.0,6.0,44,0.00,,,0.00,meteohub,2013-03-04 23:34:00,
2013-03-04 17:39:00,45.3,24.8,29.28,South,180,3.0,6.0,44,0.00,,,0.00,meteohub,2013-03-04 23:39:00,
2013-03-04 17:44:00,45.3,24.8,29.28,East,90,5.0,6.0,44,0.00,,,0.00,meteohub,2013-03-04 23:44:00,
2013-03-04 17:49:00,45.1,24.6,29.28,ESE,112,4.0,6.0,44,0.00,,,0.00,meteohub,2013-03-04 23:49:00,
2013-03-04 17:54:00,45.1,25.2,29.28,ENE,68,5.0,7.0,45,0.00,,,0.00,meteohub,2013-03-04 23:54:00,
2013-03-04 17:59:00,45.0,25.0,29.28,East,90,4.0,7.0,45,0.00,,,0.00,meteohub,2013-03-04 23:59:00,
2013-03-04 18:04:00,44.8,25.3,29.28,East,90,5.0,7.0,46,0.00,,,0.00,meteohub,2013-03-05 00:04:00,
2013-03-04 18:09:00,45.0,25.0,29.28,ESE,112,4.0,7.0,45,0.00,,,0.00,meteohub,2013-03-05 00:09:00,
2013-03-04 18:14:00,44.8,24.8,29.28,ESE,112,6.0,7.0,45,0.00,,,0.00,meteohub,2013-03-05 00:14:00,
2013-03-04 18:19:00,44.8,24.8,29.28,East,90,5.0,8.0,45,0.00,,,0.00,meteohub,2013-03-05 00:19:00,
2013-03-04 18:25:00,44.8,25.3,29.28,East,90,3.0,8.0,46,0.00,,,0.00,meteohub,2013-03-05 00:25:00,
2013-03-04 18:30:00,44.6,24.6,29.28,East,90,5.0,9.0,45,0.00,,,0.00,meteohub,2013-03-05 00:30:00,
2013-03-04 18:35:00,44.6,24.6,29.28,East,90,6.0,9.0,45,0.00,,,0.00,meteohub,2013-03-05 00:35:00,
2013-03-04 18:40:00,44.6,25.2,29.28,NE,45,3.0,9.0,46,0.00,,,0.00,meteohub,2013-03-05 00:40:00,
2013-03-04 18:45:00,44.6,24.6,29.28,East,90,3.0,9.0,45,0.00,,,0.00,meteohub,2013-03-05 00:45:00,
2013-03-04 18:50:00,44.4,25.0,29.28,East,90,4.0,8.0,46,0.00,,,0.00,meteohub,2013-03-05 00:50:00,
2013-03-04 18:55:00,44.4,25.0,29.28,East,90,6.0,8.0,46,0.00,,,0.00,meteohub,2013-03-05 00:55:00,
2013-03-04 19:00:00,44.2,25.3,29.28,NE,45,2.0,8.0,47,0.00,,,0.00,meteohub,2013-03-05 01:00:00,
2013-03-04 19:05:00,44.1,25.7,29.28,ENE,68,3.0,6.0,48,0.00,,,0.00,meteohub,2013-03-05 01:05:00,
2013-03-04 19:10:00,44.1,25.7,29.28,East,90,4.0,6.0,48,0.00,,,0.00,meteohub,2013-03-05 01:10:00,
2013-03-04 19:16:00,43.9,25.5,29.28,East,90,3.0,5.0,48,0.00,,,0.00,meteohub,2013-03-05 01:16:00,
2013-03-04 19:21:00,43.7,25.9,29.28,East,90,3.0,6.0,49,0.00,,,0.00,meteohub,2013-03-05 01:21:00,
2013-03-04 19:26:00,43.7,25.9,29.31,ENE,68,2.0,6.0,49,0.00,,,0.00,meteohub,2013-03-05 01:26:00,
2013-03-04 19:31:00,43.5,25.7,29.31,East,90,6.0,6.0,49,0.00,,,0.00,meteohub,2013-03-05 01:31:00,
2013-03-04 19:36:00,43.5,25.7,29.31,East,90,3.0,6.0,49,0.00,,,0.00,meteohub,2013-03-05 01:36:00,
2013-03-04 19:41:00,43.5,25.7,29.28,East,90,4.0,6.0,49,0.00,,,0.00,meteohub,2013-03-05 01:41:00,
2013-03-04 19:46:00,43.5,25.7,29.28,East,90,4.0,6.0,49,0.00,,,0.00,meteohub,2013-03-05 01:46:00,
2013-03-04 19:52:00,43.5,25.7,29.28,ENE,68,5.0,6.0,49,0.00,,,0.00,meteohub,2013-03-05 01:52:00,
2013-03-04 19:57:00,43.5,25.7,29.28,ESE,112,3.0,7.0,49,0.00,,,0.00,meteohub,2013-03-05 01:57:00,
2013-03-04 20:02:00,43.5,25.7,29.28,South,180,5.0,7.0,49,0.00,,,0.00,meteohub,2013-03-05 02:02:00,
2013-03-04 20:07:00,43.7,25.3,29.28,East,90,5.0,7.0,48,0.00,,,0.00,meteohub,2013-03-05 02:07:00,
2013-03-04 20:12:00,43.7,25.3,29.28,East,90,4.0,7.0,48,0.00,,,0.00,meteohub,2013-03-05 02:12:00,
2013-03-04 20:17:00,43.5,25.2,29.28,NE,45,4.0,9.0,48,0.00,,,0.00,meteohub,2013-03-05 02:17:00,
2013-03-04 20:22:00,43.5,25.2,29.28,East,90,3.0,9.0,48,0.00,,,0.00,meteohub,2013-03-05 02:22:00,
2013-03-04 20:27:00,43.7,25.3,29.28,SSE,158,8.0,8.0,48,0.00,,,0.00,meteohub,2013-03-05 02:27:00,
2013-03-04 20:32:00,43.7,25.3,29.28,East,90,4.0,10.0,48,0.00,,,0.00,meteohub,2013-03-05 02:32:00,
2013-03-04 20:37:00,43.7,25.3,29.28,East,90,6.0,10.0,48,0.00,,,0.00,meteohub,2013-03-05 02:37:00,
2013-03-04 20:42:00,43.5,25.2,29.28,ESE,112,6.0,10.0,48,0.00,,,0.00,meteohub,2013-03-05 02:42:00,
2013-03-04 20:47:00,43.5,25.2,29.28,ENE,68,3.0,10.0,48,0.00,,,0.00,meteohub,2013-03-05 02:47:00,
2013-03-04 20:52:00,43.5,25.2,29.28,East,90,6.0,8.0,48,0.00,,,0.00,meteohub,2013-03-05 02:52:00,
2013-03-04 20:57:00,43.3,25.5,29.25,NNE,22,3.0,9.0,49,0.00,,,0.00,meteohub,2013-03-05 02:57:00,
2013-03-04 21:02:00,43.3,25.5,29.25,ENE,68,3.0,9.0,49,0.00,,,0.00,meteohub,2013-03-05 03:02:00,
2013-03-04 21:07:00,43.2,25.3,29.25,East,90,5.0,9.0,49,0.00,,,0.00,meteohub,2013-03-05 03:07:00,
2013-03-04 21:12:00,43.2,25.3,29.28,NE,45,4.0,6.0,49,0.00,,,0.00,meteohub,2013-03-05 03:12:00,
2013-03-04 21:17:00,43.0,25.7,29.28,ENE,68,4.0,8.0,50,0.00,,,0.00,meteohub,2013-03-05 03:17:00,
2013-03-04 21:22:00,43.0,25.7,29.28,East,90,4.0,8.0,50,0.00,,,0.00,meteohub,2013-03-05 03:22:00,
2013-03-04 21:27:00,43.0,25.7,29.28,East,90,3.0,6.0,50,0.00,,,0.00,meteohub,2013-03-05 03:27:00,
2013-03-04 21:32:00,42.8,25.5,29.28,ENE,68,4.0,9.0,50,0.00,,,0.00,meteohub,2013-03-05 03:32:00,
2013-03-04 21:37:00,42.8,25.5,29.28,East,90,4.0,9.0,50,0.00,,,0.00,meteohub,2013-03-05 03:37:00,
2013-03-04 21:42:00,42.8,25.9,29.31,ENE,68,4.0,9.0,51,0.00,,,0.00,meteohub,2013-03-05 03:42:00,
2013-03-04 21:47:00,42.8,25.9,29.31,East,90,3.0,8.0,51,0.00,,,0.00,meteohub,2013-03-05 03:47:00,
2013-03-04 21:52:00,42.6,25.9,29.31,East,90,4.0,8.0,51,0.00,,,0.00,meteohub,2013-03-05 03:52:00,
2013-03-04 21:57:00,42.6,26.2,29.28,ENE,68,5.0,10.0,52,0.00,,,0.00,meteohub,2013-03-05 03:57:00,
2013-03-04 22:02:00,42.6,25.9,29.28,East,90,3.0,10.0,51,0.00,,,0.00,meteohub,2013-03-05 04:02:00,
2013-03-04 22:08:00,42.4,26.1,29.28,ENE,68,4.0,10.0,52,0.00,,,0.00,meteohub,2013-03-05 04:08:00,
2013-03-04 22:13:00,42.4,26.1,29.28,ESE,112,6.0,6.0,52,0.00,,,0.00,meteohub,2013-03-05 04:13:00,
2013-03-04 22:18:00,42.4,26.1,29.28,East,90,6.0,6.0,52,0.00,,,0.00,meteohub,2013-03-05 04:18:00,
2013-03-04 22:23:00,42.4,26.1,29.28,NE,45,4.0,8.0,52,0.00,,,0.00,meteohub,2013-03-05 04:23:00,
2013-03-04 22:28:00,42.4,26.1,29.28,ENE,68,3.0,8.0,52,0.00,,,0.00,meteohub,2013-03-05 04:28:00,
2013-03-04 22:33:00,42.4,26.1,29.28,East,90,3.0,8.0,52,0.00,,,0.00,meteohub,2013-03-05 04:33:00,
2013-03-04 22:38:00,42.4,26.1,29.25,SE,135,6.0,8.0,52,0.00,,,0.00,meteohub,2013-03-05 04:38:00,
2013-03-04 22:43:00,42.4,26.1,29.25,East,90,5.0,8.0,52,0.00,,,0.00,meteohub,2013-03-05 04:43:00,
2013-03-04 22:49:00,42.4,26.1,29.25,East,90,4.0,9.0,52,0.00,,,0.00,meteohub,2013-03-05 04:49:00,
2013-03-04 22:54:00,42.3,25.9,29.25,East,90,3.0,9.0,52,0.00,,,0.00,meteohub,2013-03-05 04:54:00,
2013-03-04 22:59:00,42.3,25.9,29.25,ENE,68,4.0,8.0,52,0.00,,,0.00,meteohub,2013-03-05 04:59:00,
2013-03-04 23:00:00,42.3,25.9,29.25,East,90,4.0,9.0,52,0.00,,,0.00,meteohub,2013-03-05 05:00:00,
2013-03-04 23:01:00,42.3,25.9,29.25,East,90,3.0,9.0,52,0.00,,,0.00,meteohub,2013-03-05 05:01:00,
2013-03-04 23:05:00,42.3,26.4,29.25,NNE,22,3.0,9.0,53,0.00,,,0.00,meteohub,2013-03-05 05:05:00,
2013-03-04 23:11:00,42.3,26.4,29.25,ENE,68,6.0,8.0,53,0.00,,,0.00,meteohub,2013-03-05 05:11:00,
2013-03-04 23:16:00,42.1,27.1,29.25,ENE,68,6.0,8.0,55,0.00,,,0.00,meteohub,2013-03-05 05:16:00,
2013-03-04 23:21:00,41.9,27.0,29.25,East,90,3.0,8.0,55,0.00,,,0.00,meteohub,2013-03-05 05:21:00,
2013-03-04 23:26:00,41.9,27.0,29.22,East,90,4.0,8.0,55,0.00,,,0.00,meteohub,2013-03-05 05:26:00,
2013-03-04 23:31:00,41.9,26.4,29.22,East,90,5.0,9.0,54,0.00,,,0.00,meteohub,2013-03-05 05:31:00,
2013-03-04 23:36:00,41.9,26.4,29.22,East,90,3.0,9.0,54,0.00,,,0.00,meteohub,2013-03-05 05:36:00,
2013-03-04 23:41:00,41.9,26.4,29.22,East,90,4.0,9.0,54,0.00,,,0.00,meteohub,2013-03-05 05:41:00,
2013-03-04 23:46:00,42.1,26.2,29.22,ENE,68,3.0,8.0,53,0.00,,,0.00,meteohub,2013-03-05 05:46:00,
2013-03-04 23:51:00,42.1,26.2,29.22,ENE,68,8.0,8.0,53,0.00,,,0.00,meteohub,2013-03-05 05:51:00,
2013-03-04 23:56:00,42.1,25.7,29.22,ENE,68,4.0,8.0,52,0.00,,,0.00,meteohub,2013-03-05 05:56:00,